Glenwood, MN

3:29 AM CST on November 18, 2017 (GMT -0600)
Glenwood Municipal

Weather History for KGHW - September, 2013

Change the Weather History Date:

Sunday, September 8, 2013

  Actual Average Record
Temperature  
Mean Temperature 65 °F -  
Max Temperature 71 °F 75 °F 93 °F (1959)
Min Temperature 59 °F 49 °F 33 °F (1992)
Growing Degree Days 15 (Base 50)    
Moisture  
Dew Point 57 °F    
Average Humidity 82    
Maximum Humidity 94    
Minimum Humidity 64    
Precipitation  
Precipitation 0.03 in - - ()
Sea Level Pressure  
Sea Level Pressure 30.00 in    
Wind  
Wind Speed 11 mph (East)    
Max Wind Speed 17 mph    
Max Gust Speed 25 mph    
Visibility 10 miles    
Events Rain , Thunderstorm    
Averages and records for this station are not official NWS values.
T = Trace of Precipitation, MM = Missing Value Source: NWS Daily Summary

Daily Weather History Graph

Daily Weather History Graph

Search for Another Location

Airport or City:

Trip Planner

Search our weather history database for the weather conditions in past years. The results will help you decide how hot, cold, wet, or windy it might be!

Date:

Astronomy

Sep. 08, 2013 Rise Set
Actual Time 6:51 AM CDT 7:45 PM CDT
Civil Twilight 6:21 AM CDT 8:15 PM CDT
Nautical Twilight 5:45 AM CDT 8:51 PM CDT
Astronomical Twilight 5:07 AM CDT 9:29 PM CDT
Moon 10:22 AM CDT (9/8) 9:07 PM CDT (9/8)
Length of Visible Light 13h 54m
Length of Day
12h 54m
Waxing Crescent, 11% of the Moon is Illuminated
Sep 8
Waxing Crescent
Sep 12
First Quarter
Sep 19
Full
Sep 26
Last Quarter
Oct 4
New

Hourly Weather History & Observations

Time (CDT) Temp. Dew Point Humidity Pressure Visibility Wind Dir Wind Speed Gust Speed Precip Events Conditions
12:13 AM 71.6 °F 62.6 °F 73% 30.06 in 10.0 mi East 17.3 mph 21.9 mph N/A   Clear
12:33 AM 69.8 °F 60.8 °F 73% 30.06 in 10.0 mi East 16.1 mph 21.9 mph N/A   Clear
12:53 AM 69.8 °F 57.2 °F 64% 30.06 in 10.0 mi East 17.3 mph 25.3 mph N/A   Clear
1:13 AM 66.2 °F 57.2 °F 73% 30.06 in 10.0 mi East 11.5 mph 19.6 mph N/A   Scattered Clouds
1:34 AM 66.2 °F 57.2 °F 73% 30.06 in 10.0 mi ENE 9.2 mph - N/A   Clear
1:53 AM 64.4 °F 57.2 °F 77% 30.06 in 10.0 mi East 13.8 mph - N/A   Clear
2:13 AM 64.4 °F 55.4 °F 73% 30.06 in 10.0 mi ENE 10.4 mph - N/A   Clear
2:33 AM 64.4 °F 55.4 °F 73% 30.05 in 10.0 mi East 13.8 mph - N/A   Clear
2:53 AM 64.4 °F 53.6 °F 68% 30.05 in 10.0 mi East 12.7 mph - N/A   Clear
3:14 AM 64.4 °F 53.6 °F 68% 30.05 in 10.0 mi ENE 10.4 mph - N/A   Clear
3:33 AM 62.6 °F 53.6 °F 72% 30.04 in 10.0 mi ENE 11.5 mph - N/A   Clear
3:53 AM 62.6 °F 53.6 °F 72% 30.04 in 10.0 mi ENE 10.4 mph - N/A   Clear
4:13 AM 62.6 °F 53.6 °F 72% 30.05 in 10.0 mi ENE 10.4 mph - N/A   Scattered Clouds
4:33 AM 62.6 °F 53.6 °F 72% 30.05 in 10.0 mi ENE 10.4 mph - N/A   Scattered Clouds
4:53 AM 62.6 °F 55.4 °F 77% 30.05 in 10.0 mi ENE 10.4 mph - N/A   Scattered Clouds
5:13 AM 62.6 °F 55.4 °F 77% 30.05 in 10.0 mi East 10.4 mph - N/A   Clear
5:33 AM 62.6 °F 55.4 °F 77% 30.05 in 10.0 mi East 11.5 mph - N/A   Clear
5:53 AM 62.6 °F 55.4 °F 77% 30.04 in 10.0 mi East 12.7 mph - N/A   Scattered Clouds
6:13 AM 62.6 °F 55.4 °F 77% 30.05 in 10.0 mi East 11.5 mph - N/A Rain Light Rain
6:33 AM 62.6 °F 55.4 °F 77% 30.04 in 10.0 mi East 11.5 mph - N/A   Scattered Clouds
6:53 AM 62.6 °F 55.4 °F 77% 30.04 in 10.0 mi East 9.2 mph - N/A Thunderstorm Scattered Clouds
7:14 AM 62.6 °F 55.4 °F 77% 30.05 in 10.0 mi East 9.2 mph - N/A   Scattered Clouds
7:33 AM 62.6 °F 55.4 °F 77% 30.06 in 10.0 mi East 10.4 mph - N/A   Scattered Clouds
7:53 AM 62.6 °F 53.6 °F 72% 30.05 in 10.0 mi East 9.2 mph - N/A   Scattered Clouds
8:13 AM 62.6 °F 53.6 °F 72% 30.05 in 10.0 mi ENE 10.4 mph - N/A   Mostly Cloudy
8:33 AM 62.6 °F 53.6 °F 72% 30.05 in 10.0 mi ENE 10.4 mph - N/A   Overcast
8:53 AM 62.6 °F 53.6 °F 72% 30.04 in 10.0 mi ENE 13.8 mph - N/A   Overcast
9:13 AM 62.6 °F 53.6 °F 72% 30.05 in 10.0 mi ENE 10.4 mph - N/A Thunderstorm Overcast
9:33 AM 62.6 °F 53.6 °F 72% 30.05 in 10.0 mi ENE 11.5 mph 16.1 mph N/A   Mostly Cloudy
9:53 AM 60.8 °F 53.6 °F 77% 30.05 in 10.0 mi ENE 11.5 mph - N/A   Scattered Clouds
10:13 AM 60.8 °F 53.6 °F 77% 30.07 in 10.0 mi ENE 11.5 mph - N/A Rain Light Rain
10:33 AM 59.0 °F 55.4 °F 88% 30.07 in 10.0 mi ENE 8.1 mph - N/A   Light Drizzle
10:53 AM 60.8 °F 55.4 °F 82% 30.06 in 10.0 mi East 9.2 mph - N/A   Overcast
11:14 AM 60.8 °F 55.4 °F 82% 30.04 in 10.0 mi East 9.2 mph - N/A   Light Drizzle
11:33 AM 59.0 °F 55.4 °F 88% 30.04 in 10.0 mi East 11.5 mph - N/A Rain Light Rain
11:54 AM 60.8 °F 57.2 °F 88% 30.05 in 10.0 mi East 6.9 mph - 0.01 in Rain Rain
12:13 PM 60.8 °F 57.2 °F 88% 30.04 in 10.0 mi East 4.6 mph - N/A   Drizzle
12:33 PM 60.8 °F 57.2 °F 88% 30.02 in 10.0 mi East 8.1 mph - N/A Rain Rain
12:53 PM 60.8 °F 59.0 °F 94% 30.02 in 10.0 mi ESE 10.4 mph - 0.01 in Rain Light Rain
1:13 PM 62.6 °F 59.0 °F 88% 30.01 in 10.0 mi East 9.2 mph - N/A Rain Light Rain
1:34 PM 62.6 °F 59.0 °F 88% 30.02 in 10.0 mi ENE 5.8 mph - N/A   Drizzle
1:53 PM 62.6 °F 60.8 °F 94% 30.01 in 10.0 mi NE 8.1 mph - N/A   Overcast
2:13 PM 62.6 °F 60.8 °F 94% 30.01 in 10.0 mi NE 9.2 mph - 0.01 in   Overcast
2:33 PM 62.6 °F 59.0 °F 88% 29.99 in 10.0 mi ENE 8.1 mph - 0.01 in   Overcast
2:53 PM 62.6 °F 60.8 °F 94% 29.99 in 10.0 mi ENE 10.4 mph - 0.01 in   Light Drizzle
3:13 PM 62.6 °F 60.8 °F 94% 29.97 in 10.0 mi ENE 10.4 mph - N/A   Overcast
3:33 PM 62.6 °F 60.8 °F 94% 29.97 in 10.0 mi East 10.4 mph - N/A   Overcast
3:53 PM 62.6 °F 60.8 °F 94% 29.96 in 10.0 mi East 10.4 mph - N/A   Overcast
4:13 PM 64.4 °F 60.8 °F 88% 29.97 in 10.0 mi ENE 10.4 mph - N/A   Overcast
4:33 PM 62.6 °F 60.8 °F 94% 29.97 in 10.0 mi ENE 9.2 mph - N/A   Overcast
4:53 PM 62.6 °F 59.0 °F 88% 29.97 in 10.0 mi ENE 11.5 mph - N/A Rain Light Rain
5:13 PM 62.6 °F 59.0 °F 88% 29.95 in 10.0 mi East 8.1 mph - N/A   Light Drizzle
5:33 PM 62.6 °F 59.0 °F 88% 29.95 in 10.0 mi East 8.1 mph - N/A   Overcast
5:53 PM 62.6 °F 59.0 °F 88% 29.95 in 10.0 mi East 10.4 mph - N/A   Overcast
6:13 PM 62.6 °F 59.0 °F 88% 29.95 in 10.0 mi East 10.4 mph - N/A   Overcast
6:33 PM 62.6 °F 59.0 °F 88% 29.94 in 7.0 mi East 6.9 mph - N/A   Overcast
6:53 PM 62.6 °F 59.0 °F 88% 29.93 in 7.0 mi East 8.1 mph - N/A   Overcast
7:13 PM 62.6 °F 59.0 °F 88% 29.92 in 7.0 mi East 10.4 mph - N/A   Overcast
7:33 PM 62.6 °F 59.0 °F 88% 29.92 in 7.0 mi ESE 8.1 mph - N/A   Overcast
7:53 PM 62.6 °F 59.0 °F 88% 29.92 in 10.0 mi East 6.9 mph - N/A   Overcast
8:13 PM 62.6 °F 59.0 °F 88% 29.92 in 10.0 mi East 6.9 mph - N/A   Overcast
8:33 PM 62.6 °F 59.0 °F 88% 29.92 in 10.0 mi East 8.1 mph - N/A   Overcast
8:53 PM 62.6 °F 59.0 °F 88% 29.92 in 10.0 mi East 8.1 mph - N/A   Mostly Cloudy
9:13 PM 62.6 °F 59.0 °F 88% 29.91 in 10.0 mi ESE 6.9 mph - N/A   Mostly Cloudy
9:33 PM 62.6 °F 59.0 °F 88% 29.91 in 10.0 mi East 6.9 mph - N/A   Mostly Cloudy
9:53 PM 62.6 °F 57.2 °F 82% 29.90 in 10.0 mi East 8.1 mph - N/A   Mostly Cloudy
10:13 PM 62.6 °F 57.2 °F 82% 29.90 in 10.0 mi East 8.1 mph - N/A   Mostly Cloudy
10:34 PM 62.6 °F 59.0 °F 88% 29.90 in 10.0 mi East 8.1 mph - N/A   Overcast
10:53 PM 62.6 °F 59.0 °F 88% 29.90 in 10.0 mi East 6.9 mph - N/A   Mostly Cloudy
11:13 PM 62.6 °F 57.2 °F 82% 29.89 in 10.0 mi East 6.9 mph - N/A   Mostly Cloudy
11:33 PM 62.6 °F 57.2 °F 82% 29.89 in 10.0 mi East 5.8 mph - N/A   Scattered Clouds
11:53 PM 62.6 °F 57.2 °F 82% 29.89 in 10.0 mi East 4.6 mph - N/A   Scattered Clouds